Time,TemperatureF,DewpointF,PressureIn,WindDirection,WindDirectionDegrees,WindSpeedMPH,WindSpeedGustMPH,Humidity,HourlyPrecipIn,Conditions,Clouds,dailyrainin,SoftwareType,DateUTC
2013-01-07 00:00:00,39.0,17.3,29.88,NNW,337,7.0,10.0,41,0.00,,,0.00,VWS V14.01,2013-01-07 07:00:00,
2013-01-07 00:15:00,39.0,16.2,29.89,North,360,7.0,7.0,39,0.00,,,0.00,VWS V14.01,2013-01-07 07:15:00,
2013-01-07 00:30:00,38.0,18.0,29.90,North,360,7.0,7.0,44,0.00,,,0.00,VWS V14.01,2013-01-07 07:30:00,
2013-01-07 00:45:00,39.0,17.9,29.90,North,360,8.0,8.0,42,0.00,,,0.00,VWS V14.01,2013-01-07 07:45:00,
2013-01-07 01:00:00,38.0,17.0,29.90,North,360,2.0,8.0,42,0.00,,,0.00,VWS V14.01,2013-01-07 08:00:00,
2013-01-07 01:15:00,37.0,17.1,29.91,ESE,112,0.0,2.0,44,0.00,,,0.00,VWS V14.01,2013-01-07 08:15:00,
2013-01-07 01:30:00,38.0,17.0,29.91,ESE,112,1.0,1.0,42,0.00,,,0.00,VWS V14.01,2013-01-07 08:30:00,
2013-01-07 01:45:00,37.0,17.1,29.91,South,180,0.0,1.0,44,0.00,,,0.00,VWS V14.01,2013-01-07 08:45:00,
2013-01-07 02:00:00,38.0,18.0,29.92,WSW,247,0.0,0.0,44,0.00,,,0.00,VWS V14.01,2013-01-07 09:00:00,
2013-01-07 02:15:00,40.0,20.4,29.92,West,270,1.0,1.0,45,0.00,,,0.00,VWS V14.01,2013-01-07 09:15:00,
2013-01-07 02:30:00,38.0,20.1,29.92,NW,315,1.0,1.0,48,0.00,,,0.00,VWS V14.01,2013-01-07 09:30:00,
2013-01-07 02:45:00,37.0,19.6,29.92,SW,225,0.0,1.0,49,0.00,,,0.00,VWS V14.01,2013-01-07 09:45:00,
2013-01-07 03:00:00,33.0,19.9,29.96,West,270,1.0,1.0,58,0.00,,,0.00,VWS V14.01,2013-01-07 10:00:00,
2013-01-07 03:15:00,32.0,19.3,29.97,WNW,292,1.0,1.0,59,0.00,,,0.00,VWS V14.01,2013-01-07 10:15:00,
2013-01-07 03:30:00,32.0,19.7,29.98,NNW,337,0.0,1.0,60,0.00,,,0.00,VWS V14.01,2013-01-07 10:30:00,
2013-01-07 03:45:00,34.0,20.4,29.97,NW,315,0.0,0.0,57,0.00,,,0.00,VWS V14.01,2013-01-07 10:45:00,
2013-01-07 04:00:00,32.0,19.7,29.97,West,270,0.0,0.0,60,0.00,,,0.00,VWS V14.01,2013-01-07 11:00:00,
2013-01-07 04:15:00,34.0,21.2,29.98,WSW,247,1.0,1.0,59,0.00,,,0.00,VWS V14.01,2013-01-07 11:15:00,
2013-01-07 04:30:00,32.0,20.5,29.98,WNW,292,2.0,2.0,62,0.00,,,0.00,VWS V14.01,2013-01-07 11:30:00,
2013-01-07 04:45:00,29.0,20.5,30.01,NW,315,2.0,2.0,70,0.00,,,0.00,VWS V14.01,2013-01-07 11:45:00,
2013-01-07 05:00:00,32.0,21.6,30.00,NW,315,4.0,4.0,65,0.00,,,0.00,VWS V14.01,2013-01-07 12:00:00,
2013-01-07 05:15:00,32.0,20.9,29.99,NW,315,2.0,4.0,63,0.00,,,0.00,VWS V14.01,2013-01-07 12:15:00,
2013-01-07 05:30:00,29.0,20.5,30.01,NW,315,0.0,2.0,70,0.00,,,0.00,VWS V14.01,2013-01-07 12:30:00,
2013-01-07 05:45:00,26.0,19.8,30.03,NNW,337,3.0,3.0,77,0.00,,,0.00,VWS V14.01,2013-01-07 12:45:00,
2013-01-07 06:00:00,27.0,19.5,30.04,NW,315,5.0,5.0,73,0.00,,,0.00,VWS V14.01,2013-01-07 13:00:00,
2013-01-07 06:15:00,25.0,19.1,30.05,North,360,1.0,5.0,78,0.00,,,0.00,VWS V14.01,2013-01-07 13:15:00,
2013-01-07 06:30:00,25.0,19.4,30.06,North,360,0.0,1.0,79,0.00,,,0.00,VWS V14.01,2013-01-07 13:30:00,
2013-01-07 06:45:00,26.0,20.4,30.06,WNW,292,0.0,0.0,79,0.00,,,0.00,VWS V14.01,2013-01-07 13:45:00,
2013-01-07 07:00:00,24.0,18.5,30.06,WSW,247,1.0,1.0,79,0.00,,,0.00,VWS V14.01,2013-01-07 14:00:00,
2013-01-07 07:15:00,26.0,20.4,30.06,SW,225,1.0,1.0,79,0.00,,,0.00,VWS V14.01,2013-01-07 14:15:00,
2013-01-07 07:30:00,26.0,20.4,30.06,West,270,0.0,1.0,79,0.00,,,0.00,VWS V14.01,2013-01-07 14:30:00,
2013-01-07 07:45:00,26.0,20.1,30.06,West,270,0.0,0.0,78,0.00,,,0.00,VWS V14.01,2013-01-07 14:45:00,
2013-01-07 08:00:00,25.0,20.9,30.06,WNW,292,0.0,0.0,84,0.00,,,0.00,VWS V14.01,2013-01-07 15:00:00,
2013-01-07 08:15:00,28.0,21.7,30.05,SSW,202,1.0,1.0,77,0.00,,,0.00,VWS V14.01,2013-01-07 15:15:00,
2013-01-07 08:30:00,30.0,24.0,30.03,SSW,202,5.0,5.0,78,0.00,,,0.00,VWS V14.01,2013-01-07 15:30:00,
2013-01-07 08:45:00,32.0,24.0,30.02,SSW,202,6.0,6.0,72,0.00,,,0.00,VWS V14.01,2013-01-07 15:45:00,
2013-01-07 09:00:00,34.0,24.2,30.01,South,180,9.0,9.0,67,0.00,,,0.00,VWS V14.01,2013-01-07 16:00:00,
2013-01-07 09:15:00,36.0,25.0,30.00,South,180,10.0,10.0,64,0.00,,,0.00,VWS V14.01,2013-01-07 16:15:00,
2013-01-07 09:30:00,39.0,25.9,29.98,South,180,11.0,11.0,59,0.00,,,0.00,VWS V14.01,2013-01-07 16:30:00,
2013-01-07 09:45:00,40.0,25.6,29.97,South,180,13.0,13.0,56,0.00,,,0.00,VWS V14.01,2013-01-07 16:45:00,
2013-01-07 10:00:00,41.0,26.1,29.97,South,180,12.0,13.0,55,0.00,,,0.00,VWS V14.01,2013-01-07 17:00:00,
2013-01-07 10:15:00,41.0,25.2,29.97,South,180,13.0,13.0,53,0.00,,,0.00,VWS V14.01,2013-01-07 17:15:00,
2013-01-07 10:30:00,41.0,24.7,29.96,South,180,13.0,13.0,52,0.00,,,0.00,VWS V14.01,2013-01-07 17:30:00,
2013-01-07 10:45:00,40.0,24.3,29.96,SSE,157,14.0,14.0,53,0.00,,,0.00,VWS V14.01,2013-01-07 17:45:00,
2013-01-07 11:15:00,41.0,24.3,29.95,SSE,157,14.0,14.0,51,0.00,,,0.00,VWS V14.01,2013-01-07 18:15:00,
2013-01-07 11:30:00,42.0,25.2,29.91,SSE,157,15.0,15.0,51,0.00,,,0.00,VWS V14.01,2013-01-07 18:30:00,
2013-01-07 11:45:00,42.0,25.2,29.91,SSE,157,15.0,15.0,51,0.00,,,0.00,VWS V14.01,2013-01-07 18:45:00,
2013-01-07 12:00:00,42.0,24.2,29.89,SSE,157,15.0,15.0,49,0.00,,,0.00,VWS V14.01,2013-01-07 19:00:00,
2013-01-07 12:15:00,42.0,24.2,29.89,South,180,16.0,16.0,49,0.00,,,0.00,VWS V14.01,2013-01-07 19:15:00,
2013-01-07 12:30:00,41.0,22.8,29.89,SSE,157,15.0,16.0,48,0.00,,,0.00,VWS V14.01,2013-01-07 19:30:00,
2013-01-07 12:45:00,42.0,23.2,29.88,SE,135,16.0,16.0,47,0.00,,,0.00,VWS V14.01,2013-01-07 19:45:00,
2013-01-07 13:00:00,42.0,23.2,29.87,SE,135,16.0,16.0,47,0.00,,,0.00,VWS V14.01,2013-01-07 20:00:00,
2013-01-07 13:15:00,42.0,23.2,29.87,SE,135,13.0,16.0,47,0.00,,,0.00,VWS V14.01,2013-01-07 20:15:00,
2013-01-07 13:30:00,42.0,23.8,29.87,SE,135,12.0,13.0,48,0.00,,,0.00,VWS V14.01,2013-01-07 20:30:00,
2013-01-07 13:45:00,43.0,24.2,29.86,SE,135,11.0,12.0,47,0.00,,,0.00,VWS V14.01,2013-01-07 20:45:00,
2013-01-07 14:00:00,42.0,25.2,29.86,SE,135,15.0,15.0,51,0.00,,,0.00,VWS V14.01,2013-01-07 21:00:00,
2013-01-07 14:15:00,42.0,25.7,29.86,SE,135,14.0,15.0,52,0.00,,,0.00,VWS V14.01,2013-01-07 21:15:00,
2013-01-07 14:30:00,42.0,25.7,29.85,SE,135,13.0,14.0,52,0.00,,,0.00,VWS V14.01,2013-01-07 21:30:00,
2013-01-07 14:45:00,42.0,25.7,29.86,SE,135,14.0,14.0,52,0.00,,,0.00,VWS V14.01,2013-01-07 21:45:00,
2013-01-07 15:00:00,41.0,25.6,29.86,ESE,112,11.0,14.0,54,0.00,,,0.00,VWS V14.01,2013-01-07 22:00:00,
2013-01-07 15:15:00,41.0,26.5,29.87,ESE,112,7.0,11.0,56,0.00,,,0.00,VWS V14.01,2013-01-07 22:15:00,
2013-01-07 15:30:00,40.0,26.0,29.88,SE,135,9.0,9.0,57,0.00,,,0.00,VWS V14.01,2013-01-07 22:30:00,
2013-01-07 15:45:00,40.0,23.8,29.88,SW,225,4.0,9.0,52,0.00,,,0.00,VWS V14.01,2013-01-07 22:45:00,
2013-01-07 16:00:00,38.0,23.7,29.89,NW,315,2.0,4.0,56,0.00,,,0.00,VWS V14.01,2013-01-07 23:00:00,
2013-01-07 16:15:00,36.0,23.9,29.89,North,360,3.0,3.0,61,0.00,,,0.00,VWS V14.01,2013-01-07 23:15:00,
2013-01-07 16:30:00,36.0,24.3,29.89,NE,45,5.0,5.0,62,0.00,,,0.00,VWS V14.01,2013-01-07 23:30:00,
2013-01-07 16:45:00,35.0,23.3,29.90,NE,45,4.0,5.0,62,0.00,,,0.00,VWS V14.01,2013-01-07 23:45:00,
2013-01-07 17:00:00,34.0,23.5,29.91,North,360,5.0,5.0,65,0.00,,,0.00,VWS V14.01,2013-01-08 00:00:00,
2013-01-07 17:15:00,31.0,22.4,29.92,NW,315,7.0,7.0,70,0.00,,,0.00,VWS V14.01,2013-01-08 00:15:00,
2013-01-07 17:30:00,27.0,20.8,29.94,NW,315,7.0,7.0,77,0.00,,,0.00,VWS V14.01,2013-01-08 00:30:00,
2013-01-07 17:45:00,28.0,21.7,29.93,WNW,292,5.0,7.0,77,0.00,,,0.00,VWS V14.01,2013-01-08 00:45:00,
2013-01-07 18:00:00,28.0,21.7,29.93,NW,315,6.0,6.0,77,0.00,,,0.00,VWS V14.01,2013-01-08 01:00:00,
2013-01-07 18:15:00,29.0,21.8,29.93,NNW,337,7.0,7.0,74,0.00,,,0.00,VWS V14.01,2013-01-08 01:15:00,
2013-01-07 18:30:00,27.0,20.8,29.93,NNW,337,5.0,7.0,77,0.00,,,0.00,VWS V14.01,2013-01-08 01:30:00,
2013-01-07 18:45:00,25.0,20.0,29.93,NW,315,5.0,5.0,81,0.00,,,0.00,VWS V14.01,2013-01-08 01:45:00,
2013-01-07 19:00:00,24.0,20.1,29.94,NW,315,4.0,5.0,85,0.00,,,0.00,VWS V14.01,2013-01-08 02:00:00,
2013-01-07 19:15:00,24.0,19.9,29.93,NW,315,4.0,4.0,84,0.00,,,0.00,VWS V14.01,2013-01-08 02:15:00,
2013-01-07 19:30:00,23.0,21.3,29.95,WNW,292,3.0,4.0,93,0.00,,,0.00,VWS V14.01,2013-01-08 02:30:00,
2013-01-07 19:45:00,25.0,20.9,29.93,WNW,292,1.0,3.0,84,0.00,,,0.00,VWS V14.01,2013-01-08 02:45:00,
2013-01-07 20:00:00,25.0,21.1,29.91,WNW,292,1.0,1.0,85,0.00,,,0.00,VWS V14.01,2013-01-08 03:00:00,
2013-01-07 20:15:00,25.0,21.4,29.92,WNW,292,1.0,1.0,86,0.00,,,0.00,VWS V14.01,2013-01-08 03:15:00,
2013-01-07 20:30:00,25.0,20.9,29.90,WNW,292,2.0,2.0,84,0.00,,,0.00,VWS V14.01,2013-01-08 03:30:00,
2013-01-07 20:45:00,24.0,20.4,29.91,West,270,0.0,2.0,86,0.00,,,0.00,VWS V14.01,2013-01-08 03:45:00,
2013-01-07 21:00:00,25.0,20.6,29.89,WNW,292,0.0,0.0,83,0.00,,,0.00,VWS V14.01,2013-01-08 04:00:00,
2013-01-07 21:15:00,26.0,21.8,29.88,WNW,292,0.0,0.0,84,0.00,,,0.00,VWS V14.01,2013-01-08 04:15:00,
2013-01-07 21:30:00,26.0,22.4,29.87,WNW,292,0.0,0.0,86,0.00,,,0.00,VWS V14.01,2013-01-08 04:30:00,
2013-01-07 21:49:00,26.0,22.4,29.87,WSW,247,0.0,0.0,86,0.00,,,0.00,VWS V14.01,2013-01-08 04:49:00,
2013-01-07 21:54:00,26.0,22.1,29.87,WSW,247,0.0,0.0,85,0.00,,,0.00,VWS V14.01,2013-01-08 04:54:00,
2013-01-07 21:59:00,25.0,21.1,29.86,West,270,0.0,1.0,85,0.00,,,0.00,VWS V14.01,2013-01-08 04:59:00,
2013-01-07 22:00:00,25.0,21.1,29.86,West,270,0.0,0.0,85,0.00,,,0.00,VWS V14.01,2013-01-08 05:00:00,
2013-01-07 22:03:00,25.0,21.1,29.86,WSW,247,2.0,3.0,85,0.00,,,0.00,VWS V14.01,2013-01-08 05:03:00,
2013-01-07 22:08:00,26.0,21.6,29.85,WSW,247,1.0,5.0,83,0.00,,,0.00,VWS V14.01,2013-01-08 05:08:00,
2013-01-07 22:13:00,26.0,21.8,29.85,SW,225,3.0,6.0,84,0.00,,,0.00,VWS V14.01,2013-01-08 05:13:00,
2013-01-07 22:18:00,28.0,21.7,29.83,SSW,202,2.0,7.0,77,0.00,,,0.00,VWS V14.01,2013-01-08 05:18:00,
2013-01-07 22:23:00,27.0,21.4,29.83,SSW,202,0.0,5.0,79,0.00,,,0.00,VWS V14.01,2013-01-08 05:23:00,
2013-01-07 22:28:00,27.0,21.7,29.83,SW,225,0.0,4.0,80,0.00,,,0.00,VWS V14.01,2013-01-08 05:28:00,
2013-01-07 22:33:00,27.0,22.2,29.83,SW,225,0.0,2.0,82,0.00,,,0.00,VWS V14.01,2013-01-08 05:33:00,
2013-01-07 22:38:00,27.0,21.7,29.83,SW,225,1.0,3.0,80,0.00,,,0.00,VWS V14.01,2013-01-08 05:38:00,
2013-01-07 22:43:00,27.0,21.7,29.83,SW,225,0.0,2.0,80,0.00,,,0.00,VWS V14.01,2013-01-08 05:43:00,
2013-01-07 22:48:00,27.0,22.2,29.82,SW,225,1.0,2.0,82,0.00,,,0.00,VWS V14.01,2013-01-08 05:48:00,
2013-01-07 22:53:00,27.0,22.5,29.82,SW,225,1.0,1.0,83,0.00,,,0.00,VWS V14.01,2013-01-08 05:53:00,
2013-01-07 22:58:00,27.0,22.5,29.82,SW,225,2.0,4.0,83,0.00,,,0.00,VWS V14.01,2013-01-08 05:58:00,
2013-01-07 23:03:00,27.0,22.2,29.82,SW,225,2.0,2.0,82,0.00,,,0.00,VWS V14.01,2013-01-08 06:03:00,
2013-01-07 23:08:00,27.0,22.2,29.81,SW,225,0.0,4.0,82,0.00,,,0.00,VWS V14.01,2013-01-08 06:08:00,
2013-01-07 23:13:00,27.0,22.5,29.81,SW,225,1.0,4.0,83,0.00,,,0.00,VWS V14.01,2013-01-08 06:13:00,
2013-01-07 23:18:00,27.0,22.5,29.81,SW,225,3.0,5.0,83,0.00,,,0.00,VWS V14.01,2013-01-08 06:18:00,
2013-01-07 23:23:00,27.0,22.8,29.81,SW,225,2.0,3.0,84,0.00,,,0.00,VWS V14.01,2013-01-08 06:23:00,
2013-01-07 23:28:00,27.0,22.5,29.81,SSW,202,4.0,6.0,83,0.00,,,0.00,VWS V14.01,2013-01-08 06:28:00,
2013-01-07 23:33:00,27.0,22.5,29.81,SSW,202,3.0,4.0,83,0.00,,,0.00,VWS V14.01,2013-01-08 06:33:00,
2013-01-07 23:39:00,27.0,22.5,29.80,SSW,202,5.0,6.0,83,0.00,,,0.00,VWS V14.01,2013-01-08 06:39:00,
2013-01-07 23:44:00,28.0,23.2,29.80,SSW,202,6.0,7.0,82,0.00,,,0.00,VWS V14.01,2013-01-08 06:44:00,
2013-01-07 23:49:00,28.0,23.8,29.78,SW,225,2.0,6.0,84,0.00,,,0.00,VWS V14.01,2013-01-08 06:49:00,
2013-01-07 23:54:00,27.0,23.1,29.78,SSW,202,7.0,9.0,85,0.00,,,0.00,VWS V14.01,2013-01-08 06:54:00,
2013-01-07 23:59:00,28.0,23.5,29.78,SSW,202,7.0,9.0,83,0.00,,,0.00,VWS V14.01,2013-01-08 06:59:00,